Weather History for Owosso, MI

Change the Weather History Date:

Tuesday, September 11, 2012

  Actual Average (KFNT) Record (KFNT)
Temperature  
Mean Temperature 67 °F 63 °F  
Max Temperature 80 °F 74 °F 95 °F (1931)
Min Temperature 54 °F 52 °F 36 °F (1958)
Degree Days  
Heating Degree Days 0 4  
Month to date heating degree days 31  
Since 1 July heating degree days 75  
Cooling Degree Days 2 2  
Month to date cooling degree days 27  
Year to date cooling degree days 504  
Growing Degree Days 17 (Base 50)    
Moisture  
Dew Point 51 °F    
Average Humidity 59    
Maximum Humidity 81    
Minimum Humidity 36    
Precipitation  
Precipitation 0.00 in 0.12 in 1.97 in (1947)
Month to date precipitation 1.33  
Year to date precipitation 21.89  
Snow  
Snow 0.00 in 0.00 in 0.00 in ()
Month to date snowfall 0.0  
Since 1 July snowfall 0.0  
Since 1 September snowfall 0.0  
Snow Depth -    
Sea Level Pressure  
Sea Level Pressure 30.15 in    
Wind  
Wind Speed 5 mph (South)    
Max Wind Speed 14 mph    
Max Gust Speed 21 mph    
Visibility 10 miles    
Events      
T = Trace of Precipitation, MM = Missing Value Source: NWS Daily Summary

Daily Weather History Graph

Daily Weather History Graph

Search for Another Location

Airport:

Trip Planner

Search our weather history database for the weather conditions in past years. The results will help you decide how hot, cold, wet, or windy it might be!

Date:

Astronomy

Sep. 11, 2012 Rise Set
Actual Time 7:12 AM EDT 7:52 PM EDT
Civil Twilight 6:43 AM EDT 8:21 PM EDT
Nautical Twilight 6:09 AM EDT 8:55 PM EDT
Astronomical Twilight 5:34 AM EDT 9:30 PM EDT
Moon 2:22 AM EDT (9/11) 5:07 PM EDT (9/11)
Length of Visible Light 13h 37m
Length of Day
12h 40m
Waning Crescent, 21% of the Moon is Illuminated
Sep 11
Waning Crescent
Sep 15
New
Sep 22
First Quarter
Sep 29
Full
Oct 8
Last Quarter

Hourly Weather History & Observations

Time (EDT) Temp. Dew Point Humidity Pressure Visibility Wind Dir Wind Speed Gust Speed Precip Events Conditions
12:15 AM 58.6 °F 50.0 °F 73% 30.15 in 10.0 mi South 3.5 mph - N/A   Clear
12:36 AM 58.5 °F 49.5 °F 72% 30.15 in 10.0 mi South 4.6 mph - N/A   Clear
12:55 AM 58.5 °F 49.8 °F 73% 30.15 in 10.0 mi South 3.5 mph - N/A   Clear
1:15 AM 58.6 °F 49.1 °F 71% 30.15 in 10.0 mi South 3.5 mph - N/A   Clear
1:35 AM 57.4 °F 49.1 °F 74% 30.15 in 10.0 mi Calm Calm - N/A   Clear
1:55 AM 57.2 °F 48.7 °F 73% 30.16 in 10.0 mi Calm Calm - N/A   Clear
2:15 AM 57.0 °F 48.7 °F 74% 30.16 in 10.0 mi Calm Calm - N/A   Clear
2:35 AM 55.8 °F 49.1 °F 78% 30.16 in 10.0 mi South 3.5 mph - N/A   Clear
2:56 AM 56.1 °F 48.4 °F 75% 30.16 in 10.0 mi Calm Calm - N/A   Clear
3:15 AM 55.0 °F 48.2 °F 78% 30.16 in 10.0 mi Calm Calm - N/A   Clear
3:35 AM 54.3 °F 47.7 °F 78% 30.16 in 10.0 mi Calm Calm - N/A   Clear
3:56 AM 54.0 °F 48.2 °F 81% 30.16 in 10.0 mi Calm Calm - N/A   Clear
4:15 AM 55.0 °F 47.7 °F 76% 30.16 in 10.0 mi South 3.5 mph - N/A   Clear
4:35 AM 55.4 °F 47.7 °F 75% 30.16 in 10.0 mi South 4.6 mph - N/A   Clear
4:55 AM 55.0 °F 47.3 °F 75% 30.16 in 10.0 mi South 4.6 mph - N/A   Clear
5:15 AM 55.0 °F 46.9 °F 74% 30.17 in 10.0 mi South 3.5 mph - N/A   Clear
5:35 AM 55.6 °F 46.6 °F 72% 30.17 in 10.0 mi Calm Calm - N/A   Clear
5:55 AM 55.2 °F 46.4 °F 72% 30.17 in 10.0 mi Calm Calm - N/A   Clear
6:15 AM 55.4 °F 46.6 °F 72% 30.17 in 10.0 mi South 4.6 mph - N/A   Clear
6:36 AM 56.3 °F 46.6 °F 70% 30.17 in 10.0 mi South 4.6 mph - N/A   Clear
6:55 AM 56.5 °F 46.2 °F 68% 30.18 in 10.0 mi South 4.6 mph - N/A   Clear
7:15 AM 56.3 °F 46.4 °F 69% 30.19 in 10.0 mi South 4.6 mph - N/A   Clear
7:36 AM 56.8 °F 46.9 °F 69% 30.19 in 10.0 mi South 4.6 mph - N/A   Clear
7:55 AM 58.6 °F 47.3 °F 66% 30.19 in 10.0 mi South 6.9 mph - N/A   Clear
8:15 AM 59.2 °F 47.7 °F 66% 30.20 in 10.0 mi South 6.9 mph - N/A   Clear
8:36 AM 60.8 °F 48.0 °F 63% 30.20 in 10.0 mi South 6.9 mph - N/A   Clear
8:55 AM 61.2 °F 48.6 °F 63% 30.20 in 10.0 mi South 8.1 mph - N/A   Clear
9:15 AM 62.8 °F 49.3 °F 61% 30.20 in 10.0 mi South 6.9 mph - N/A   Clear
9:35 AM 64.2 °F 50.0 °F 60% 30.20 in 10.0 mi South 6.9 mph - N/A   Clear
9:55 AM 66.6 °F 51.6 °F 59% 30.20 in 10.0 mi South 8.1 mph - N/A   Clear
10:15 AM 68.2 °F 51.8 °F 56% 30.20 in 10.0 mi SSW 8.1 mph - N/A   Clear
10:35 AM 70.0 °F 53.4 °F 56% 30.20 in 10.0 mi SSW 9.2 mph - N/A   Clear
10:55 AM 71.6 °F 53.6 °F 53% 30.20 in 10.0 mi SSW 9.2 mph - N/A   Clear
11:16 AM 73.0 °F 53.4 °F 50% 30.19 in 10.0 mi SSW 12.7 mph 16.1 mph N/A   Clear
11:35 AM 73.8 °F 53.2 °F 49% 30.19 in 10.0 mi SSW 13.8 mph 17.3 mph N/A   Clear
11:55 AM 75.0 °F 53.8 °F 47% 30.18 in 10.0 mi SSW 10.4 mph 17.3 mph N/A   Clear
12:16 PM 75.7 °F 54.0 °F 47% 30.18 in 10.0 mi SSW 12.7 mph 18.4 mph N/A   Clear
12:35 PM 75.6 °F 53.2 °F 46% 30.17 in 10.0 mi WSW 13.8 mph - N/A   Clear
12:55 PM 76.6 °F 53.4 °F 44% 30.17 in 10.0 mi SSW 11.5 mph 20.7 mph N/A   Clear
1:15 PM 77.0 °F 51.6 °F 41% 30.16 in 10.0 mi SSW 12.7 mph 18.4 mph N/A   Clear
1:35 PM 77.9 °F 52.3 °F 41% 30.16 in 10.0 mi SSW 12.7 mph 18.4 mph N/A   Clear
1:55 PM 78.3 °F 52.2 °F 40% 30.16 in 10.0 mi South 12.7 mph 18.4 mph N/A   Clear
2:15 PM 78.4 °F 50.5 °F 38% 30.16 in 10.0 mi SSW 12.7 mph 18.4 mph N/A   Clear
2:35 PM 79.7 °F 50.9 °F 37% 30.14 in 10.0 mi SW 11.5 mph - N/A   Clear
2:55 PM 79.7 °F 51.1 °F 37% 30.14 in 10.0 mi SW 12.7 mph 16.1 mph N/A   Clear
3:15 PM 79.7 °F 51.3 °F 37% 30.13 in 10.0 mi SW 12.7 mph 18.4 mph N/A   Clear
3:36 PM 79.7 °F 52.3 °F 39% 30.13 in 10.0 mi SSW 9.2 mph - N/A   Clear
3:55 PM 80.6 °F 51.6 °F 36% 30.12 in 10.0 mi SSW 12.7 mph 18.4 mph N/A   Clear
4:15 PM 80.4 °F 51.8 °F 37% 30.12 in 10.0 mi SSW 13.8 mph - N/A   Clear
4:35 PM 80.8 °F 51.8 °F 36% 30.12 in 10.0 mi SSW 8.1 mph 16.1 mph N/A   Clear
4:55 PM 80.8 °F 51.6 °F 36% 30.12 in 10.0 mi SSW 11.5 mph 17.3 mph N/A   Clear
5:16 PM 79.0 °F 52.0 °F 39% 30.12 in 10.0 mi South 10.4 mph 16.1 mph N/A   Clear
5:35 PM 79.3 °F 52.9 °F 40% 30.12 in 10.0 mi South 9.2 mph - N/A   Clear
5:55 PM 79.0 °F 53.1 °F 40% 30.11 in 10.0 mi South 6.9 mph - N/A   Clear
6:16 PM 77.2 °F 53.6 °F 44% 30.11 in 10.0 mi SSW 6.9 mph - N/A   Clear
6:35 PM 76.6 °F 53.6 °F 45% 30.11 in 10.0 mi South 4.6 mph - N/A   Clear
6:55 PM 76.5 °F 53.8 °F 45% 30.11 in 10.0 mi South 4.6 mph - N/A   Clear
7:15 PM 75.0 °F 54.1 °F 48% 30.11 in 10.0 mi South 4.6 mph - N/A   Clear
7:36 PM 73.4 °F 54.9 °F 52% 30.11 in 10.0 mi South 4.6 mph - N/A   Clear
7:55 PM 72.3 °F 55.4 °F 55% 30.12 in 10.0 mi South 3.5 mph - N/A   Clear
8:15 PM 71.1 °F 55.4 °F 58% 30.12 in 10.0 mi South 4.6 mph - N/A   Clear
8:36 PM 69.8 °F 55.4 °F 60% 30.12 in 10.0 mi SSW 4.6 mph - N/A   Clear
8:55 PM 69.1 °F 55.0 °F 61% 30.13 in 10.0 mi SSW 4.6 mph - N/A   Clear
9:15 PM 69.8 °F 54.9 °F 59% 30.13 in 10.0 mi South 4.6 mph - N/A   Clear
9:35 PM 68.7 °F 54.9 °F 61% 30.13 in 10.0 mi Calm Calm - N/A   Clear
9:55 PM 67.6 °F 55.4 °F 65% 30.14 in 10.0 mi SE 3.5 mph - N/A   Clear
10:15 PM 65.7 °F 55.8 °F 70% 30.14 in 10.0 mi SE 3.5 mph - N/A   Clear
10:35 PM 65.7 °F 55.6 °F 70% 30.14 in 10.0 mi Calm Calm - N/A   Clear
10:55 PM 64.9 °F 55.6 °F 72% 30.14 in 10.0 mi South 4.6 mph - N/A   Clear
11:16 PM 65.5 °F 55.4 °F 70% 30.14 in 10.0 mi South 5.8 mph - N/A   Clear
11:35 PM 65.3 °F 55.0 °F 69% 30.14 in 10.0 mi South 5.8 mph - N/A   Clear
11:55 PM 65.1 °F 54.7 °F 69% 30.15 in 10.0 mi South 3.5 mph - N/A   Clear